Location: �perlecques
(50.8057°N, 2.1521°E)
Time: 05:18:00
(UTC+00:00)

Vanguard 1 Rocket - Pass Details

Date: 08 August 2021
Orbit: 650 x 4226 km, 34.3° (Epoch: 22 September)

Event Time Altitude Azimuth Distance (km) Brightness Sun altitude
Rises 13:03:13 0° 271° (W) 7,301 12.2 52.7°
Reaches altitude 10° 13:10:00 10° 261° (W) 5,625 11.9 52.2°
Maximum altitude 13:20:43 24° 217° (SW) 3,388 11.6 51.3°
Drops below altitude 10° 13:27:37 10° 168° (SSE) 3,476 10.9 50.7°
Sets 13:30:37 0° 153° (SSE) 4,060 11.0 50.4°
